Tracking 33200 objects as of 17-Feb-2026
HD Live streaming from Space Station
objects crossing your sky now

SL-3 DEB

Track SL-3 DEB now!
10-day predictions


NORAD ID: 13720
Int'l Code: 1982-116C
Perigee: 806.9 km
Apogee: 885.2 km
Inclination: 81.2 °
Period: 101.7 minutes
Semi major axis: 7217 km
RCS: 0.0137 m2 (small)
Launch date: December 14, 1982
Source: Commonwealth of Independent States (former USSR) (CIS)
Launch site: PLESETSK MISSILE AND SPACE COMPLEX (PKMTR)

Note: This is SATELLITE DEBRIS
Your satellite tracking list
Your tracking list is empty




NASA's NSSDC Master Catalog

Two Line Element Set (TLE):
1 13720U 82116C   26048.18242851  .00000176  00000-0  81750-4 0  9991
2 13720  81.2477 103.6497 0054300 299.9647 114.8451 14.15999094229404
Source of the keplerian elements: AFSPC